EW6920 Weather Reports


Display with metric or nautical units.
time (UTC)temp
F
wind
direction
speed
MPH
gust
MPH
rain 1hr
in
rain 24hr
in
rain mn
in
humidity
%
barometer
mb
20260504044558 41 0 0.0 2.0 0.00 0.00 0.00 70 999.2
20260504043047 41 0 0.0 0.0 0.00 0.00 0.00 67 999.5
20260504041546 42 0 0.0 0.0 0.00 0.00 0.00 67 999.8
20260504040047 43 0 0.0 0.0 0.00 0.00 0.00 62 1000.1
20260504034553 44 0 0.0 0.0 0.00 0.00 0.00 64 1000.3
20260504033054 45 0 0.0 0.0 0.00 0.00 0.00 62 1000.5
20260504031547 46 0 0.0 0.0 0.00 0.00 0.00 57 1000.8
20260504030047 47 0 0.0 0.0 0.00 0.00 0.00 57 1000.8
20260504024546 47 0 0.0 0.0 0.00 0.00 0.00 57 1001.0
20260504023041 48 0 0.0 0.0 0.00 0.00 0.00 53 1001.2
20260504021547 49 0 0.0 0.0 0.00 0.00 0.00 49 1001.2
20260504020046 50 0 0.0 0.0 0.00 0.00 0.00 48 1001.3
20260504014548 51 0 0.0 0.0 0.00 0.00 0.00 47 1001.2
20260504013050 52 0 0.0 0.0 0.00 0.00 0.00 49 1001.4
20260504011540 54 0 0.0 0.0 0.00 0.00 0.00 38 1001.4
20260504010055 55 0 0.0 0.0 0.00 0.00 0.00 35 1001.3
20260504004547 57 0 1.0 4.0 0.00 0.00 0.00 35 1001.3
20260504003046 57 310 2.0 10.0 0.00 0.00 0.00 30 1001.3
20260504001607 58 315 2.0 10.0 0.00 0.00 0.00 29 1001.5
20260504000053 58 313 2.0 9.0 0.00 0.00 0.00 30 1001.5
20260503234547 59 329 4.0 11.0 0.00 0.00 0.00 29 1001.5
20260503233046 60 292 6.0 14.0 0.00 0.00 0.00 29 1001.4
20260503231549 60 318 7.0 21.0 0.00 0.00 0.00 27 1001.5
20260503230045 60 318 8.0 17.0 0.00 0.00 0.00 25 1001.4
20260503224542 60 282 5.0 16.0 0.00 0.00 0.00 26 1001.2
20260503223049 61 309 8.0 15.0 0.00 0.00 0.00 28 1001.3
20260503221547 61 169 4.0 17.0 0.00 0.00 0.00 29 1001.0
20260503220104 62 306 9.0 18.0 0.00 0.00 0.00 29 1000.9
20260503214546 63 321 9.0 21.0 0.00 0.00 0.00 33 1001.0
20260503213048 64 288 7.0 18.0 0.00 0.00 0.00 34 1000.8
20260503211559 65 309 11.0 21.0 0.00 0.00 0.00 35 1000.8
20260503210052 65 302 5.0 16.0 0.00 0.00 0.00 35 1000.6
20260503204553 65 299 11.0 18.0 0.00 0.00 0.00 36 1000.7
20260503203045 65 317 8.0 15.0 0.00 0.00 0.00 37 1000.6
20260503201543 65 301 9.0 22.0 0.00 0.00 0.00 40 1000.7
20260503200042 65 321 10.0 18.0 0.00 0.00 0.00 37 1000.8
20260503194549 65 315 10.0 20.0 0.00 0.00 0.00 37 1000.9
20260503193049 64 267 9.0 20.0 0.00 0.00 0.00 40 1000.9
20260503191544 65 272 11.0 23.0 0.00 0.00 0.00 44 1001.1
20260503190044 65 335 11.0 23.0 0.00 0.00 0.00 40 1001.3
20260503184545 64 313 6.0 24.0 0.00 0.00 0.00 41 1001.3
20260503183048 64 285 12.0 22.0 0.00 0.00 0.00 44 1001.5
20260503181617 64 313 11.0 20.0 0.00 0.00 0.00 43 1001.6
20260503180045 65 290 10.0 18.0 0.00 0.00 0.00 43 1001.6
20260503174550 65 300 9.0 19.0 0.00 0.00 0.00 44 1001.6
20260503173052 65 277 11.0 19.0 0.00 0.00 0.00 45 1001.7
20260503171548 63 242 8.0 16.0 0.00 0.00 0.00 49 1001.6
20260503081550 49 259 3.0 8.0 0.00 0.00 0.00 76 1005.6
20260503071540 49 286 6.0 12.0 0.00 0.00 0.00 69 1005.6